Погода в Карасуле

Россия / Тюменская область     56°18′12″N   68°55′47″E
темп.,
°C
ветер,
м/с
пор.,
м/с
влажн.,
%
обл.,
%
осадки,
мм/ч
давл.,
гПа
погр.,
м
17 сентября, пт
пт1723:00+8зсз49725 0.0 999276
02:00+5зюз367534 0.0 999132
05:00+4юз368384 0.0 999138
08:00+6зюз6876100 0.0 998794
11:00+6зюз7981100 0.4 9981100
14:00+7зюз6873100 0.2 9981056
17:00+8з71169100 0.4 9981280
20:00+6зсз71184100 0.3 10001305
18 сентября, сб
сб1823:00+5зсз71187100 0.4 1001848
02:00+5зсз61087100 0.1 1003767
05:00+4з61085100 0.2 1005715
08:00+5з6977100 0.0 1006968
11:00+7з795196 0.1 10061595
14:00+9зсз794693 0.0 10061816
17:00+9сз584455 0.0 10051730
20:00+4з346557 0.0 100655
19 сентября, вс
вс1923:00+2зюз347030 0.0 100565
02:00+1зюз497935 0.0 1004173
05:00+1зюз511925 0.0 1004275
08:00+2з7138068 0.0 1004563
11:00+5з91265100 0.0 10041222
14:00+4з91385100 0.3 10051128
17:00+3зсз81396100 1.7 1007744
20:00+2зсз7129193 0.4 1008907
20 сентября, пн
пн2023:00+3зсз81282100 0.4 10091142
02:00+2зсз71287100 0.1 10111044
05:00+2сз71297100 0.2 1013707
08:00+2сз7128999 0.1 1016856
11:00+4сз7108390 0.3 1019899
14:00+5ссз8108096 0.3 10211000
17:00+5ссз597886 0.5 1024949
20:00+2сз489396 0.1 1026275
21 сентября, вт
вт2123:00+2сз389299 0.1 1028311
02:00+3сз3786100 0.0 1028349
05:00+2сз3787100 0.0 1029382
08:00+3сз468481 0.0 1030630
11:00+6сз466270 0.0 10301129
14:00+9сз45478 0.0 10291358
17:00+9зсз45485 0.0 10281246
20:00+4зсз336440 0.0 102933